CW1187 Weather Reports


time (UTC)temp
F
wind
direction
speed
knots
gust
knots
rain 1hr
in
rain 24hr
in
rain mn
in
humidity
%
barometer
mb
20190318232342 44 296 1.7 0.0 0.00 0.00 0.00 51 1026.0
20190318231338 44 296 1.7 0.0 0.00 0.00 0.00 50 1025.9
20190318230339 44 333 1.7 0.0 0.00 0.00 0.00 49 1025.9
20190318225334 44 342 1.7 0.0 0.00 0.00 0.00 46 1025.9
20190318224347 45 277 2.6 0.0 0.00 0.00 0.00 50 1025.9
20190318223335 45 280 2.6 0.0 0.00 0.00 0.00 48 1025.9
20190318222339 45 280 2.6 0.0 0.00 0.00 0.00 49 1025.9
20190318221329 46 274 3.5 0.0 0.00 0.00 0.00 48 1025.7
20190318220339 46 263 2.6 0.0 0.00 0.00 0.00 47 1025.7
20190318215336 47 267 1.7 0.0 0.00 0.00 0.00 49 1025.7
20190318214349 47 258 2.6 0.0 0.00 0.00 0.00 45 1025.7
20190318213340 47 263 1.7 0.0 0.00 0.00 0.00 43 1025.7
20190318212333 47 261 0.9 0.0 0.00 0.00 0.00 40 1025.8
20190318211343 47 261 1.7 0.0 0.00 0.00 0.00 43 1025.8
20190318210334 46 256 1.7 0.0 0.00 0.00 0.00 47 1025.8
20190318205330 46 250 1.7 0.0 0.00 0.00 0.00 45 1025.8
20190318204343 46 241 2.6 0.0 0.00 0.00 0.00 45 1025.7
20190318203331 48 243 2.6 0.0 0.00 0.00 0.00 42 1025.7
20190318202345 49 236 2.6 0.0 0.00 0.00 0.00 42 1025.6
20190318201344 50 250 1.7 0.0 0.00 0.00 0.00 45 1025.7
20190318200334 48 244 2.6 0.0 0.00 0.00 0.00 45 1025.7
20190318195344 47 309 2.6 0.0 0.00 0.00 0.00 45 1025.8
20190318194344 47 337 1.7 0.0 0.00 0.00 0.00 43 1025.8
20190318193339 49 270 2.6 0.0 0.00 0.00 0.00 42 1025.8
20190318192333 48 257 1.7 0.0 0.00 0.00 0.00 43 1026.1
20190318191344 47 294 1.7 0.0 0.00 0.00 0.00 46 1026.2
20190318190339 47 271 1.7 0.0 0.00 0.00 0.00 46 1026.2
20190318185332 46 261 2.6 0.0 0.00 0.00 0.00 47 1026.3
20190318184329 47 264 3.5 0.0 0.00 0.00 0.00 45 1026.6
20190318183337 47 250 2.6 0.0 0.00 0.00 0.00 45 1026.6
20190318182350 47 257 1.7 0.0 0.00 0.00 0.00 50 1026.8
20190318181345 46 298 1.7 0.0 0.00 0.00 0.00 48 1027.0
20190318180336 45 261 1.7 0.0 0.00 0.00 0.00 46 1027.0
20190318175343 47 267 2.6 0.0 0.00 0.00 0.00 45 1027.2
20190318174338 45 275 1.7 0.0 0.00 0.00 0.00 52 1027.2
20190318173333 46 360 1.7 0.0 0.00 0.00 0.00 43 1027.2
20190318172344 47 284 1.7 0.0 0.00 0.00 0.00 47 1027.2
20190318171340 47 325 1.7 0.0 0.00 0.00 0.00 46 1027.3
20190318170347 46 329 1.7 0.0 0.00 0.00 0.00 46 1027.3
20190318165341 46 335 1.7 0.0 0.00 0.00 0.00 44 1027.3
20190318164331 45 285 1.7 0.0 0.00 0.00 0.00 51 1027.5
20190318163344 44 294 1.7 0.0 0.00 0.00 0.00 46 1027.5
20190318162341 43 247 1.7 0.0 0.00 0.00 0.00 50 1027.6
20190318161329 42 318 1.7 0.0 0.00 0.00 0.00 47 1027.5
20190318160331 42 329 1.7 0.0 0.00 0.00 0.00 49 1027.5
20190318155334 42 313 1.7 0.0 0.00 0.00 0.00 46 1027.5
20190318154342 42 318 1.7 0.0 0.00 0.00 0.00 48 1027.3
20190318153336 41 350 1.7 0.0 0.00 0.00 0.00 51 1027.3
20190318152344 42 311 1.7 0.0 0.00 0.00 0.00 51 1027.0
20190318151341 41 299 0.9 0.0 0.00 0.00 0.00 55 1026.9
20190318150330 41 311 0.9 0.0 0.00 0.00 0.00 57 1026.9
20190318145343 41 308 0.9 0.0 0.00 0.00 0.00 62 1026.9
20190318144339 41 339 0.9 0.0 0.00 0.00 0.00 67 1026.9
20190318143333 40 342 0.9 0.0 0.00 0.00 0.00 68 1026.9
20190318142348 39 347 0.0 0.0 0.00 0.00 0.00 71 1026.7
20190318141344 39 347 0.0 0.0 0.00 0.00 0.00 73 1026.6
20190318140330 38 347 0.0 0.0 0.00 0.00 0.00 74 1026.6
20190318135345 37 349 0.0 0.0 0.00 0.00 0.00 76 1026.5
20190318134340 36 349 0.0 0.0 0.00 0.00 0.00 77 1025.6
20190318133336 34 349 0.0 0.0 0.00 0.00 0.00 82 1025.6
20190318132346 32 349 0.0 0.0 0.00 0.00 0.00 84 1025.6
20190318131344 31 349 0.0 0.0 0.00 0.00 0.00 83 1025.5
20190318130334 31 349 0.0 0.0 0.00 0.00 0.00 82 1025.5
20190318125344 30 349 0.0 0.0 0.00 0.00 0.00 83 1025.3
20190318124334 29 349 0.0 0.0 0.00 0.00 0.00 83 1025.2
20190318123347 28 349 0.0 0.0 0.00 0.00 0.00 84 1025.2
20190318122344 27 349 0.0 0.0 0.00 0.00 0.00 86 1025.2
20190318121336 26 349 0.0 0.0 0.00 0.00 0.00 87 1024.9
20190318120340 26 349 0.0 0.0 0.00 0.00 0.00 87 1024.9
20190318115332 27 349 0.0 0.0 0.00 0.00 0.00 86 1024.8
20190318114345 26 349 0.9 0.0 0.00 0.00 0.00 87 1024.7
20190318113339 26 352 1.7 0.0 0.00 0.00 0.00 86 1024.7
20190318112333 26 352 0.9 0.0 0.00 0.00 0.00 86 1024.6
20190318111331 26 352 0.9 0.0 0.00 0.00 0.00 86 1024.4
20190318110339 26 352 0.9 0.0 0.00 0.00 0.00 86 1024.4
20190318105347 26 352 0.9 0.0 0.00 0.00 0.00 85 1024.3
20190318104342 26 352 0.9 0.0 0.00 0.00 0.00 85 1024.1
20190318103335 26 352 0.9 0.0 0.00 0.00 0.00 85 1024.1
20190318102329 26 352 0.9 0.0 0.00 0.00 0.00 85 1023.9
20190318101337 26 352 0.9 0.0 0.00 0.00 0.00 85 1024.5
20190318100335 26 352 0.9 0.0 0.00 0.00 0.00 85 1024.5
20190318095349 26 352 0.9 0.0 0.00 0.00 0.00 85 1024.5
20190318094345 27 352 0.0 0.0 0.00 0.00 0.00 84 1024.4
20190318093335 27 352 0.0 0.0 0.00 0.00 0.00 84 1024.4
20190318092331 27 352 0.9 0.0 0.00 0.00 0.00 84 1024.4
20190318091344 27 352 0.9 0.0 0.00 0.00 0.00 84 1024.3
20190318090341 27 352 0.9 0.0 0.00 0.00 0.00 83 1024.3
20190318085330 28 352 0.9 0.0 0.00 0.00 0.00 83 1024.3
20190318084329 28 352 0.9 0.0 0.00 0.00 0.00 82 1024.3
20190318083339 28 352 0.9 0.0 0.00 0.00 0.00 82 1024.3
20190318082333 28 352 0.9 0.0 0.00 0.00 0.00 83 1024.4
20190318081340 28 352 0.9 0.0 0.00 0.00 0.00 84 1024.3
20190318080345 28 352 0.9 0.0 0.00 0.00 0.00 84 1024.3
20190318075342 28 352 1.7 0.0 0.00 0.00 0.00 84 1024.3
20190318074332 28 352 0.9 0.0 0.00 0.00 0.00 84 1024.3
20190318073331 28 352 0.9 0.0 0.00 0.00 0.00 84 1024.3
20190318072345 28 352 0.9 0.0 0.00 0.00 0.00 84 1024.4
20190318071341 28 352 1.7 0.0 0.00 0.00 0.00 84 1024.3
20190318070346 29 352 0.9 0.0 0.00 0.00 0.00 82 1024.3
20190318065343 29 352 0.9 0.0 0.00 0.00 0.00 81 1024.2
20190318064343 30 352 0.9 0.0 0.00 0.00 0.00 82 1024.1
20190318063342 30 352 0.9 0.0 0.00 0.00 0.00 82 1024.1
20190318062359 30 352 0.0 0.0 0.00 0.00 0.00 84 1024.0
20190318061351 30 352 0.9 0.0 0.00 0.00 0.00 85 1024.1
20190318060342 30 352 0.9 0.0 0.00 0.00 0.00 85 1024.1
20190318055335 30 352 0.9 0.0 0.00 0.00 0.00 86 1024.1
20190318054349 29 352 0.9 0.0 0.00 0.00 0.00 87 1024.1
20190318053342 29 352 0.0 0.0 0.00 0.00 0.00 87 1024.1
20190318052330 29 352 0.0 0.0 0.00 0.00 0.00 86 1024.1
20190318051357 29 352 0.0 0.0 0.00 0.00 0.00 86 1024.3
20190318050340 29 352 0.0 0.0 0.00 0.00 0.00 86 1024.3
20190318045354 29 352 0.0 0.0 0.00 0.00 0.02 85 1024.2
20190318044348 30 352 0.0 0.0 0.00 0.00 0.02 84 1024.1
20190318043346 30 352 0.0 0.0 0.00 0.00 0.02 83 1024.1
20190318042404 31 352 0.0 0.0 0.00 0.00 0.02 82 1023.9
20190318041355 31 352 0.0 0.0 0.00 0.00 0.02 84 1023.1
20190318040342 31 352 0.0 0.0 0.00 0.00 0.02 83 1023.1
20190318035400 31 352 0.0 0.0 0.00 0.00 0.02 82 1023.0
20190318034351 32 352 0.0 0.0 0.00 0.00 0.02 78 1023.9
20190318033351 33 352 0.0 0.0 0.00 0.00 0.02 79 1023.9
20190318032333 33 352 0.0 0.0 0.00 0.00 0.02 78 1023.8
20190318031356 33 352 0.0 0.0 0.00 0.00 0.02 78 1022.8
20190318030343 33 352 0.0 0.0 0.00 0.00 0.02 78 1022.8
20190318025356 33 352 0.9 0.0 0.00 0.00 0.02 79 1022.7
20190318024349 33 352 0.0 0.0 0.00 0.00 0.02 80 1022.7
20190318023357 33 352 0.0 0.0 0.00 0.00 0.02 80 1022.7
20190318022355 32 352 1.7 0.0 0.00 0.00 0.02 81 1022.6
20190318021339 32 352 1.7 0.0 0.00 0.00 0.02 81 1022.5
20190318020400 33 352 0.9 0.0 0.00 0.00 0.02 80 1022.5
20190318015351 33 352 0.0 0.0 0.00 0.00 0.02 80 1022.6
20190318014351 33 352 0.9 0.0 0.00 0.00 0.02 81 1022.5
20190318013404 33 352 1.7 0.0 0.00 0.00 0.02 82 1022.5
20190318012337 33 352 1.7 0.0 0.00 0.00 0.02 81 1022.4
20190318011345 33 346 1.7 0.0 0.00 0.00 0.02 82 1022.3
20190318010330 33 349 1.7 0.0 0.00 0.00 0.02 82 1022.3
20190318005331 34 347 1.7 0.0 0.00 0.00 0.02 81 1022.1
20190318004331 34 343 1.7 0.0 0.00 0.00 0.02 80 1021.9
20190318003342 34 340 1.7 0.0 0.00 0.00 0.02 80 1021.9
20190318002333 34 342 1.7 0.0 0.00 0.00 0.02 81 1021.9
20190318001348 35 320 1.7 0.0 0.00 0.00 0.02 82 1021.8
20190318000336 36 320 1.7 0.0 0.00 0.00 0.02 81 1021.8
20190317235330 36 322 1.7 0.0 0.00 0.00 0.02 80 1021.4
20190317234348 37 349 1.7 0.0 0.00 0.00 0.02 79 1021.3
20190317233344 37 328 1.7 0.0 0.00 0.00 0.02 80 1021.3